Overview Statistics Trail Chart Weather Telemetry Raw packets
 

This is the latest recevied weather packets stored in our database for station/object KD8DNS. If no packets are shown the sender has not sent any weather packets the latest 10 day(s).

<< 17 18 19 20 21 22 23 >>
Time Temp. Humidity Pressure Rain* Wind** Luminosity Snow
1788552333 34.44° C 61% 1017.7 hPa 0 mm - 489 W/m² -
1788552029 35° C 60% 1017.7 hPa 0 mm - 497 W/m² -
1788551727 33.89° C 60% 1017.7 hPa 0 mm - 502 W/m² -
1788551426 33.89° C 60% 1017.5 hPa 0 mm - 561 W/m² -
1788551121 34.44° C 59% 1017.5 hPa 0 mm - 593 W/m² -
1788550816 33.89° C 59% 1017.7 hPa 0 mm - 566 W/m² -
1788550511 33.89° C 61% 1017.4 hPa 0 mm - 545 W/m² -
1788550207 34.44° C 58% 1017.7 hPa 0 mm - 494 W/m² -
1788549906 33.89° C 55% 1017.7 hPa 0 mm - 515 W/m² -
1788549597 34.44° C 53% 1017.8 hPa 0 mm - 542 W/m² -
1788549293 33.89° C 53% 1017.7 hPa 0 mm - 552 W/m² -
1788548990 33.89° C 53% 1018.1 hPa 0 mm - 555 W/m² -
1788548685 34.44° C 56% 1018.2 hPa 0 mm - 210 W/m² -
1788548381 34.44° C 57% 1018.1 hPa 0 mm - 675 W/m² -
1788548077 33.89° C 57% 1018 hPa 0 mm - 669 W/m² -
1788547777 33.89° C 57% 1018 hPa 0 mm - 626 W/m² -
1788547471 32.78° C 59% 1018.1 hPa 0 mm - 599 W/m² -
1788547167 31.67° C 61% 1017.8 hPa 0 mm - 650 W/m² -
1788546862 32.78° C 60% 1018.3 hPa 0 mm - 258 W/m² -
1788546558 33.89° C 58% 1018.3 hPa 0 mm - 764 W/m² -
1788546253 34.44° C 58% 1018.2 hPa 0 mm - 247 W/m² -
1788545947 35° C 55% 1018.1 hPa 0 mm - 174 W/m² -
1788545642 35° C 54% 1018.3 hPa 0 mm - 740 W/m² -
1788545337 33.89° C 57% 1018.2 hPa 0 mm - 713 W/m² -
1788545033 33.89° C 58% 1018.3 hPa 0 mm - 149 W/m² -

* Rain latest hour (hover to see other rain measurements)
** Current wind speed in m/s (hover to see current wind gust speed)